{"data":{"norad_id":66075,"epoch":"2026-09-20T14:23:17.418624Z","epoch_age_seconds":94402,"freshness":"FRESH","line1":"1 66075U 25235T   26263.59950716  .00013094  00000+0  39790-3 0  9999","line2":"2 66075  53.1600  57.0506 0001416  82.9973 277.1191 15.34407244 52801","mean_motion":15.34407244,"eccentricity":0.0001416,"inclination_deg":53.16,"raan_deg":57.0506,"arg_perigee_deg":82.9973,"mean_anomaly_deg":277.1191,"bstar":0.0003979,"rev_number":5280,"period_min":93.847315022191,"perigee_km":461.71304966793,"apogee_km":463.65036952649,"semimajor_km":6840.8187095972,"source":"CELESTRAK","updated_at":"2026-09-21T09:00:35.797420Z"}}